Location: Brookview Estates
(36.0476°N, 86.6931°W)
Time: 18:09:37
(UTC+00:00)

Cosmos 1953 - Visible Passes

Search period start: 08 August 2020 00:00
Search period end: 18 August 2020 00:00
Orbit: 540 x 557 km, 82.5° (Epoch: 07 August)

Date Brightness Start Highest point End Pass type
(mag) Time Alt. Az. Time Alt. Az. Time Alt. Az.
08 Aug 4.0 08:17:50 27° E 08:17:58 27° E 08:21:23 10° NNE visible
08 Aug 4.0 09:53:33 16° W 09:54:21 17° WNW 09:57:02 10° NNW visible
09 Aug 4.0 08:13:28 29° E 08:13:28 29° E 08:16:39 10° NNE visible
09 Aug 4.1 09:49:10 16° W 09:49:33 16° WNW 09:52:03 10° NW visible
10 Aug 4.1 08:09:03 30° ENE 08:09:03 30° ENE 08:11:54 10° NNE visible
10 Aug 4.2 09:44:46 15° WNW 09:44:46 15° WNW 09:47:03 10° NW visible
11 Aug 4.2 08:04:38 29° NE 08:04:38 29° NE 08:07:08 10° NNE visible
11 Aug 4.4 09:40:20 13° WNW 09:40:20 13° WNW 09:42:00 10° NW visible
12 Aug 4.4 08:00:11 27° NE 08:00:11 27° NE 08:02:22 10° NNE visible
12 Aug 4.5 09:35:53 12° WNW 09:35:53 12° WNW 09:36:55 10° NW visible
13 Aug 4.5 07:55:42 24° NE 07:55:42 24° NE 07:57:36 10° NNE visible
13 Aug 4.7 09:31:24 11° WNW 09:31:24 11° WNW 09:31:45 10° NW visible
14 Aug 4.7 07:51:12 22° NNE 07:51:12 22° NNE 07:52:49 10° NNE visible
15 Aug 4.9 07:46:41 20° NNE 07:46:41 20° NNE 07:48:01 10° NNE visible
16 Aug 5.0 07:42:09 17° NNE 07:42:09 17° NNE 07:43:13 10° NNE visible
17 Aug 5.2 07:37:36 15° NNE 07:37:36 15° NNE 07:38:25 10° NNE visible
